���t,����,�O�C���x,�����t���O,�O�C���Ύ��x,�����t���O,���ԉ��x,�����t���O,���ԑ��Ύ��x,�����t���O,�g�C������,�����t���O,�L�b�`�����x,�����t���O,��󒲎����x,�����t���O
2004/12/1,0:00,,2,,2,13.5,0,69,0,17,0,16,0,11.7,0
2004/12/1,0:15,,2,,2,13.2,0,69.8,0,17,0,15.2,0,11.2,0
2004/12/1,0:30,,2,,2,13,0,70.7,0,17,0,15.1,0,12.5,0
2004/12/1,0:45,,2,,2,12.7,0,71.6,0,16.8,0,15,0,12.9,0
2004/12/1,1:00,,2,,2,12.6,0,75.1,0,16.8,0,14.8,0,13.2,0
2004/12/1,1:15,,2,,2,12.4,0,74.9,0,16.8,0,14.7,0,13.2,0
2004/12/1,1:30,,2,,2,12.2,0,75,0,16.8,0,14.5,0,13.6,0
2004/12/1,1:45,,2,,2,12,0,75.1,0,16.8,0,14.4,0,13.4,0
2004/12/1,2:00,,2,,2,11.8,0,75.3,0,16.8,0,14.2,0,13.4,0
2004/12/1,2:15,,2,,2,11.6,0,75.6,0,16.8,0,14.1,0,13.3,0
2004/12/1,2:30,,2,,2,11.4,0,75.9,0,16.7,0,13.9,0,13.2,0
2004/12/1,2:45,,2,,2,11.3,0,76.2,0,16.7,0,13.7,0,13.2,0
2004/12/1,3:00,,2,,2,11.2,0,76.5,0,16.7,0,13.5,0,13.1,0
2004/12/1,3:15,,2,,2,11,0,76.8,0,16.7,0,13.4,0,13,0
2004/12/1,3:30,,2,,2,10.9,0,76.5,0,16.6,0,13.3,0,12.9,0
2004/12/1,3:45,,2,,2,10.8,0,76.3,0,16.6,0,13.2,0,12.8,0
2004/12/1,4:00,,2,,2,10.8,0,76.2,0,16.6,0,13.1,0,12.8,0
2004/12/1,4:15,,2,,2,10.6,0,75.9,0,16.6,0,13,0,12.7,0
2004/12/1,4:30,,2,,2,10.5,0,76.1,0,16.5,0,12.8,0,12.6,0
2004/12/1,4:45,,2,,2,10.4,0,76.3,0,16.5,0,12.7,0,12.5,0
2004/12/1,5:00,,2,,2,10.2,0,76.2,0,16.5,0,12.6,0,12.4,0
2004/12/1,5:15,,2,,2,10.1,0,76.3,0,16.5,0,12.4,0,12.3,0
2004/12/1,5:30,,2,,2,10,0,76.6,0,16.4,0,12.3,0,12.2,0
2004/12/1,5:45,,2,,2,9.9,0,76.3,0,16.4,0,12.2,0,12.2,0
2004/12/1,6:00,,2,,2,9.8,0,76.6,0,16.4,0,12.1,0,12.1,0
2004/12/1,6:15,,2,,2,9.7,0,76.6,0,16.3,0,12,0,12,0
2004/12/1,6:30,,2,,2,9.6,0,76.3,0,16.3,0,11.9,0,11.9,0
2004/12/1,6:45,,2,,2,9.5,0,76.6,0,16.3,0,11.8,0,11.9,0
2004/12/1,7:00,,2,,2,9.5,0,76.6,0,16.2,0,11.7,0,11.8,0
2004/12/1,7:15,,2,,2,9.4,0,76.5,0,16.2,0,11.5,0,11.7,0
2004/12/1,7:30,,2,,2,9.4,0,76.3,0,16.1,0,11.4,0,11.6,0
2004/12/1,7:45,,2,,2,9.5,0,75.5,0,16.1,0,11.3,0,11.6,0
2004/12/1,8:00,,2,,2,9.6,0,74.6,0,16.1,0,11.2,0,11.5,0
2004/12/1,8:15,,2,,2,10.1,0,72.9,0,16,0,11.2,0,11.5,0
2004/12/1,8:30,,2,,2,10.7,0,70.4,0,16,0,11.1,0,11.4,0
2004/12/1,8:45,,2,,2,11.5,0,69.6,0,15.9,0,11,0,11.3,0
2004/12/1,9:00,,2,,2,13.3,0,64.6,0,15.9,0,11.1,0,11.4,0
2004/12/1,9:15,,2,,2,15.4,0,59.4,0,15.8,0,11.1,0,11.4,0
2004/12/1,9:30,,2,,2,19.2,0,46.7,0,16.1,0,11.2,0,11.4,0
2004/12/1,9:45,,2,,2,21.5,0,39.1,0,16,0,12.1,0,11.6,0
2004/12/1,10:00,,2,,2,23.5,0,35.7,0,16.7,0,12.9,0,11.8,0
2004/12/1,10:15,,2,,2,24.4,0,32.7,0,16.7,0,14.1,0,11.9,0
2004/12/1,10:30,,2,,2,22.9,0,34.6,0,16.6,0,14.5,0,12,0
2004/12/1,10:45,,2,,2,23.7,0,33,0,16.6,0,14.9,0,12.2,0
2004/12/1,11:00,,2,,2,23.3,0,36.9,0,16.5,0,14.9,0,12.7,0
2004/12/1,11:15,,2,,2,23.5,0,37,0,16.5,0,14.7,0,12.8,0
2004/12/1,11:30,,2,,2,23.2,0,37.4,0,16.4,0,14.7,0,13.5,0
2004/12/1,11:45,,2,,2,22.9,0,36.6,0,17.3,0,14.9,0,13.6,0
2004/12/1,12:00,,2,,2,22.8,0,36.3,0,17.2,0,15.1,0,13.8,0
2004/12/1,12:15,,2,,2,22.8,0,37,0,17.1,0,15.2,0,13.9,0
2004/12/1,12:30,,2,,2,22.8,0,38.3,0,16.9,0,15.3,0,14,0
2004/12/1,12:45,,2,,2,22.6,0,39,0,16.8,0,15.5,0,14.1,0
2004/12/1,13:00,,2,,2,22.4,0,38.7,0,16.7,0,15.6,0,14.2,0
2004/12/1,13:15,,2,,2,22.1,0,40.1,0,16.7,0,16,0,14.3,0
2004/12/1,13:30,,2,,2,21.6,0,41.6,0,16.6,0,16.8,0,14.4,0
2004/12/1,13:45,,2,,2,21.2,0,42.9,0,16.6,0,17,0,14.6,0
2004/12/1,14:00,,2,,2,20.8,0,43.9,0,16.6,0,17,0,14.7,0
2004/12/1,14:15,,2,,2,20.5,0,45.1,0,16.6,0,16.9,0,14.7,0
2004/12/1,14:30,,2,,2,20.2,0,46,0,16.6,0,16.9,0,14.8,0
2004/12/1,14:45,,2,,2,19.8,0,47.5,0,16.5,0,16.9,0,14.9,0
2004/12/1,15:00,,2,,2,19.4,0,48.6,0,16.5,0,17,0,15,0
2004/12/1,15:15,,2,,2,19.2,0,49.6,0,16.5,0,17,0,15.1,0
2004/12/1,15:30,,2,,2,18.9,0,50.4,0,16.5,0,17,0,15.2,0
2004/12/1,15:45,,2,,2,18.6,0,51.5,0,16.5,0,17,0,15.3,0
2004/12/1,16:00,,2,,2,18.5,0,52.7,0,16.5,0,17,0,15.4,0
2004/12/1,16:15,,2,,2,18.2,0,54.8,0,16.5,0,17,0,15.4,0
2004/12/1,16:30,,2,,2,18,0,55.7,0,16.5,0,17,0,15.5,0
2004/12/1,16:45,,2,,2,17.7,0,57.1,0,16.5,0,17,0,15.5,0
2004/12/1,17:00,,2,,2,17.3,0,57.7,0,16.7,0,17,0,15.5,0
2004/12/1,17:15,,2,,2,16.9,0,57.6,0,16.8,0,16.9,0,15.5,0
2004/12/1,17:30,,2,,2,16.5,0,57.9,0,16.8,0,16.8,0,15.5,0
2004/12/1,17:45,,2,,2,16,0,59.1,0,16.8,0,16.7,0,15.5,0
2004/12/1,18:00,,2,,2,15.5,0,62,0,16.8,0,16.5,0,15.4,0
2004/12/1,18:15,,2,,2,15.1,0,63.5,0,16.8,0,16.3,0,15.3,0
2004/12/1,18:30,,2,,2,15.3,0,66.7,0,16.8,0,16.1,0,15.4,0
2004/12/1,18:45,,2,,2,15.9,0,65.5,0,16.8,0,15.9,0,15.3,0
2004/12/1,19:00,,2,,2,15.7,0,64.5,0,16.8,0,15.7,0,15.2,0
2004/12/1,19:15,,2,,2,15.5,0,64.9,0,17,0,15.8,0,15.1,0
2004/12/1,19:30,,2,,2,15.3,0,65.7,0,17,0,16.3,0,15,0
2004/12/1,19:45,,2,,2,15,0,65.9,0,17.2,0,16.4,0,15,0
2004/12/1,20:00,,2,,2,14.8,0,66.5,0,17.2,0,16.3,0,14.9,0
2004/12/1,20:15,,2,,2,15.4,0,68.8,0,17.2,0,16.1,0,14.8,0
2004/12/1,20:30,,2,,2,15.7,0,70.4,0,17.2,0,16,0,14.8,0
2004/12/1,20:45,,2,,2,15.9,0,71,0,17.2,0,15.9,0,14.7,0
2004/12/1,21:00,,2,,2,16.1,0,71.5,0,17,0,16.1,0,14.7,0
2004/12/1,21:15,,2,,2,15.9,0,66.1,0,17,0,16.6,0,14.7,0
2004/12/1,21:30,,2,,2,16.1,0,69.9,0,17,0,16.9,0,14.7,0
2004/12/1,21:45,,2,,2,16.3,0,70.5,0,16.9,0,17.1,0,14.7,0
2004/12/1,22:00,,2,,2,16.4,0,72.1,0,16.9,0,17,0,14.8,0
2004/12/1,22:15,,2,,2,16.5,0,72.5,0,16.9,0,17.2,0,15,0
2004/12/1,22:30,,2,,2,16.7,0,76.1,0,16.8,0,17.5,0,15.1,0
2004/12/1,22:45,,2,,2,16.8,0,77.4,0,16.9,0,17.7,0,15.3,0
2004/12/1,23:00,,2,,2,16.8,0,78.3,0,16.9,0,17.8,0,16,0
2004/12/1,23:15,,2,,2,16.7,0,73.3,0,17,0,18.1,0,16.2,0
2004/12/1,23:30,,2,,2,16.5,0,70.1,0,17,0,18.2,0,15.9,0
2004/12/1,23:45,,2,,2,16.3,0,67.6,0,17,0,18.3,0,15.7,0
2004/12/2,0:00,,2,,2,16.3,0,66.3,0,17,0,18,0,15.5,0
2004/12/2,0:15,,2,,2,15.7,0,65.5,0,17,0,17.7,0,15.2,0
2004/12/2,0:30,,2,,2,15.3,0,67.1,0,17,0,17.6,0,15.1,0
2004/12/2,0:45,,2,,2,14.9,0,68.3,0,17,0,17.4,0,14.9,0
2004/12/2,1:00,,2,,2,14.6,0,69,0,17,0,17.1,0,14.8,0
2004/12/2,1:15,,2,,2,14.3,0,69.6,0,17,0,17,0,14.7,0
2004/12/2,1:30,,2,,2,14.1,0,70.5,0,16.9,0,16.8,0,14.7,0
2004/12/2,1:45,,2,,2,13.8,0,71.3,0,16.9,0,16.5,0,14.6,0
2004/12/2,2:00,,2,,2,13.6,0,72,0,16.9,0,16.2,0,14.5,0
2004/12/2,2:15,,2,,2,13.4,0,72,0,16.9,0,16,0,14.4,0
2004/12/2,2:30,,2,,2,13.2,0,72.5,0,16.9,0,15.8,0,14.3,0
2004/12/2,2:45,,2,,2,13,0,73.7,0,16.9,0,15.6,0,14.2,0
2004/12/2,3:00,,2,,2,12.8,0,74.6,0,16.9,0,15.4,0,14.2,0
2004/12/2,3:15,,2,,2,12.6,0,75.3,0,16.8,0,15.2,0,14.1,0
2004/12/2,3:30,,2,,2,12.5,0,75.8,0,16.8,0,15,0,14,0
2004/12/2,3:45,,2,,2,12.3,0,76,0,16.8,0,14.8,0,13.9,0
2004/12/2,4:00,,2,,2,12,0,76.7,0,16.8,0,14.7,0,13.8,0
2004/12/2,4:15,,2,,2,11.8,0,77.5,0,16.8,0,14.6,0,13.7,0
2004/12/2,4:30,,2,,2,11.7,0,77.6,0,16.7,0,14.4,0,13.6,0
2004/12/2,4:45,,2,,2,11.6,0,77.4,0,16.7,0,14.2,0,13.5,0
2004/12/2,5:00,,2,,2,11.5,0,77.8,0,16.7,0,14.1,0,13.4,0
2004/12/2,5:15,,2,,2,11.4,0,77.8,0,16.7,0,13.9,0,13.3,0
2004/12/2,5:30,,2,,2,11.3,0,77.8,0,16.6,0,13.8,0,13.2,0
2004/12/2,5:45,,2,,2,11.2,0,78,0,16.6,0,13.7,0,13.1,0
2004/12/2,6:00,,2,,2,11.1,0,77.8,0,16.6,0,13.6,0,13.1,0
2004/12/2,6:15,,2,,2,11,0,77.8,0,16.6,0,13.4,0,13,0
2004/12/2,6:30,,2,,2,10.9,0,78.1,0,16.5,0,13.3,0,12.9,0
2004/12/2,6:45,,2,,2,10.8,0,77.9,0,16.5,0,13.3,0,12.9,0
2004/12/2,7:00,,2,,2,10.7,0,78.1,0,16.5,0,13.2,0,12.8,0
2004/12/2,7:15,,2,,2,10.6,0,78.4,0,16.5,0,13.1,0,12.7,0
2004/12/2,7:30,,2,,2,10.6,0,78.1,0,16.4,0,13,0,12.7,0
2004/12/2,7:45,,2,,2,10.6,0,78,0,16.4,0,12.8,0,12.6,0
2004/12/2,8:00,,2,,2,10.7,0,77.4,0,16.4,0,12.8,0,12.5,0
2004/12/2,8:15,,2,,2,11,0,75.6,0,16.3,0,12.7,0,12.5,0
2004/12/2,8:30,,2,,2,12.1,0,76.2,0,16.3,0,12.6,0,12.4,0
2004/12/2,8:45,,2,,2,13.2,0,74.6,0,16.3,0,12.6,0,12.4,0
2004/12/2,9:00,,2,,2,14.3,0,68.9,0,16,0,12.5,0,12.3,0
2004/12/2,9:15,,2,,2,17,0,57.2,0,17,0,13.1,0,12.4,0
2004/12/2,9:30,,2,,2,19.4,0,49.3,0,16.9,0,14.6,0,12.4,0
2004/12/2,9:45,,2,,2,21.5,0,43.5,0,17.2,0,15.3,0,12.7,0
2004/12/2,10:00,,2,,2,23.2,0,40.6,0,17.2,0,15.3,0,12.6,0
2004/12/2,10:15,,2,,2,24.7,0,36.2,0,17.1,0,15.1,0,12.7,0
2004/12/2,10:30,,2,,2,24.4,0,38,0,16.7,0,15,0,12.8,0
2004/12/2,10:45,,2,,2,25.2,0,34.3,0,16.6,0,15.2,0,13.2,0
2004/12/2,11:00,,2,,2,24.8,0,35.9,0,16.6,0,15.4,0,13.2,0
2004/12/2,11:15,,2,,2,24.7,0,35.7,0,16.5,0,16.1,0,13.4,0
2004/12/2,11:30,,2,,2,24.9,0,37.5,0,16.5,0,17.2,0,13.5,0
2004/12/2,11:45,,2,,2,24.6,0,38.3,0,16.5,0,17.5,0,13.6,0
2004/12/2,12:00,,2,,2,24.3,0,38.4,0,16.4,0,17.9,0,13.8,0
2004/12/2,12:15,,2,,2,23.8,0,39.1,0,16.4,0,18.3,0,14.2,0
2004/12/2,12:30,,2,,2,23.1,0,40.1,0,16.3,0,18.2,0,14.3,0
2004/12/2,12:45,,2,,2,22.6,0,42.1,0,16.3,0,18.2,0,14.6,0
2004/12/2,13:00,,2,,2,22.1,0,42.4,0,16.3,0,18.2,0,14.8,0
2004/12/2,13:15,,2,,2,21.8,0,43.8,0,16.3,0,18.3,0,14.8,0
2004/12/2,13:30,,2,,2,21.5,0,44.7,0,16.3,0,18.3,0,15,0
2004/12/2,13:45,,2,,2,21.3,0,45.6,0,16.2,0,18.4,0,15.1,0
2004/12/2,14:00,,2,,2,21.1,0,46.8,0,16.2,0,18.5,0,15.3,0
2004/12/2,14:15,,2,,2,20.9,0,47.4,0,16.2,0,18.6,0,15.4,0
2004/12/2,14:30,,2,,2,20.7,0,47.6,0,16.2,0,18.6,0,15.6,0
2004/12/2,14:45,,2,,2,20.5,0,48.7,0,16.2,0,18.7,0,15.7,0
2004/12/2,15:00,,2,,2,20.3,0,49.7,0,16.2,0,18.8,0,15.8,0
2004/12/2,15:15,,2,,2,20.1,0,49.5,0,16.2,0,18.9,0,16,0
2004/12/2,15:30,,2,,2,19.9,0,50.6,0,16.2,0,18.9,0,16.1,0
2004/12/2,15:45,,2,,2,19.7,0,51.2,0,16.2,0,19,0,16.2,0
2004/12/2,16:00,,2,,2,19.6,0,51.9,0,16.2,0,19,0,16.3,0
2004/12/2,16:15,,2,,2,19.4,0,52.5,0,16.3,0,18.9,0,16.4,0
2004/12/2,16:30,,2,,2,19.1,0,53.1,0,16.3,0,18.9,0,16.5,0
2004/12/2,16:45,,2,,2,18.9,0,53.7,0,16.3,0,18.9,0,16.6,0
2004/12/2,17:00,,2,,2,18.5,0,55,0,16.3,0,18.9,0,16.6,0
2004/12/2,17:15,,2,,2,18.2,0,56,0,16.4,0,18.8,0,16.6,0
2004/12/2,17:30,,2,,2,17.8,0,57.3,0,16.4,0,18.7,0,16.6,0
2004/12/2,17:45,,2,,2,17.4,0,58.8,0,16.4,0,18.6,0,16.5,0
2004/12/2,18:00,,2,,2,17,0,60.7,0,16.5,0,18.4,0,16.5,0
2004/12/2,18:15,,2,,2,17.2,0,63,0,16.5,0,18.3,0,16.4,0
2004/12/2,18:30,,2,,2,17.4,0,63,0,16.5,0,18.1,0,16.3,0
2004/12/2,18:45,,2,,2,17.4,0,60.9,0,16.5,0,18,0,16.2,0
2004/12/2,19:00,,2,,2,17.4,0,59.6,0,16.6,0,18.2,0,16.2,0
2004/12/2,19:15,,2,,2,17.3,0,58.8,0,16.6,0,18.7,0,16.1,0
2004/12/2,19:30,,2,,2,17.2,0,59,0,16.6,0,19,0,16.1,0
2004/12/2,19:45,,2,,2,17.1,0,58.8,0,16.7,0,19.5,0,16,0
2004/12/2,20:00,,2,,2,17.1,0,58.7,0,16.7,0,19.7,0,15.9,0
2004/12/2,20:15,,2,,2,16.9,0,58.9,0,16.7,0,19.4,0,15.8,0
2004/12/2,20:30,,2,,2,16.6,0,60.4,0,16.7,0,19.2,0,15.6,0
2004/12/2,20:45,,2,,2,16.3,0,60.8,0,16.8,0,19.1,0,15.6,0
2004/12/2,21:00,,2,,2,16.2,0,63.4,0,17,0,19,0,15.6,0
2004/12/2,21:15,,2,,2,15.8,0,62.4,0,17.2,0,18.8,0,15.5,0
2004/12/2,21:30,,2,,2,15.4,0,64.5,0,17.2,0,18.7,0,15.5,0
2004/12/2,21:45,,2,,2,15.1,0,65.9,0,17.2,0,18.5,0,15.4,0
2004/12/2,22:00,,2,,2,14.8,0,66.7,0,16.9,0,18.5,0,15.2,0
2004/12/2,22:15,,2,,2,14.7,0,67.5,0,16.9,0,18.3,0,15.1,0
2004/12/2,22:30,,2,,2,14.4,0,68.4,0,16.9,0,18.1,0,15,0
2004/12/2,22:45,,2,,2,14.1,0,69.6,0,16.9,0,17.8,0,14.9,0
2004/12/2,23:00,,2,,2,13.9,0,70.4,0,16.9,0,17.7,0,14.8,0
2004/12/2,23:15,,2,,2,13.6,0,71.3,0,16.9,0,17.4,0,14.7,0
2004/12/2,23:30,,2,,2,13.9,0,75.1,0,16.9,0,17.2,0,14.6,0
2004/12/2,23:45,,2,,2,14.2,0,74,0,16.9,0,17,0,14.5,0
2004/12/3,0:00,,2,,2,14.3,0,71.2,0,17,0,16.8,0,14.4,0
2004/12/3,0:15,,2,,2,14.5,0,69.9,0,17,0,17.1,0,14.4,0
2004/12/3,0:30,,2,,2,14.5,0,68.2,0,17,0,17.6,0,14.3,0
2004/12/3,0:45,,2,,2,14.6,0,69.7,0,17,0,17.5,0,14.3,0
2004/12/3,1:00,,2,,2,14.5,0,67.5,0,17,0,18,0,14.2,0
2004/12/3,1:15,,2,,2,14.5,0,71.9,0,16.9,0,17.9,0,14.3,0
2004/12/3,1:30,,2,,2,14.3,0,71.7,0,16.9,0,17.9,0,14.4,0
2004/12/3,1:45,,2,,2,14,0,73.2,0,16.9,0,17.9,0,14.3,0
2004/12/3,2:00,,2,,2,13.7,0,73.6,0,16.9,0,17.9,0,14.6,0
2004/12/3,2:15,,2,,2,13.4,0,73.8,0,16.9,0,17.8,0,14.5,0
2004/12/3,2:30,,2,,2,13.2,0,74.4,0,16.9,0,17.4,0,14.3,0
2004/12/3,2:45,,2,,2,12.9,0,75.7,0,16.9,0,17.1,0,14.2,0
2004/12/3,3:00,,2,,2,12.7,0,76.6,0,16.8,0,16.8,0,14.2,0
2004/12/3,3:15,,2,,2,12.6,0,77.2,0,16.8,0,16.5,0,14.1,0
2004/12/3,3:30,,2,,2,12.5,0,77.1,0,16.8,0,16.3,0,14,0
2004/12/3,3:45,,2,,2,12.5,0,76.4,0,16.8,0,16.1,0,13.9,0
2004/12/3,4:00,,2,,2,12.4,0,76.2,0,16.8,0,15.9,0,13.8,0
2004/12/3,4:15,,2,,2,12.3,0,76.1,0,16.8,0,15.7,0,13.8,0
2004/12/3,4:30,,2,,2,12.2,0,75.5,0,16.7,0,15.5,0,13.7,0
2004/12/3,4:45,,2,,2,12.2,0,75.7,0,16.7,0,15.4,0,13.7,0
2004/12/3,5:00,,2,,2,12.1,0,75.5,0,16.7,0,15.3,0,13.7,0
2004/12/3,5:15,,2,,2,12,0,75.4,0,16.7,0,15.1,0,13.6,0
2004/12/3,5:30,,2,,2,12,0,75.5,0,16.7,0,15,0,13.6,0
2004/12/3,5:45,,2,,2,11.9,0,75.1,0,16.6,0,14.9,0,13.5,0
2004/12/3,6:00,,2,,2,11.9,0,74.9,0,16.6,0,14.7,0,13.5,0
2004/12/3,6:15,,2,,2,11.8,0,75.1,0,16.6,0,14.6,0,13.5,0
2004/12/3,6:30,,2,,2,11.7,0,74.9,0,16.6,0,14.5,0,13.4,0
2004/12/3,6:45,,2,,2,11.7,0,74.6,0,16.5,0,14.5,0,13.4,0
2004/12/3,7:00,,2,,2,11.7,0,74.5,0,16.5,0,14.4,0,13.4,0
2004/12/3,7:15,,2,,2,11.7,0,75.1,0,16.5,0,14.3,0,13.3,0
2004/12/3,7:30,,2,,2,11.6,0,75,0,16.5,0,14.2,0,13.3,0
2004/12/3,7:45,,2,,2,11.7,0,75.1,0,16.2,0,14.1,0,13.3,0
2004/12/3,8:00,,2,,2,11.8,0,74.1,0,16.1,0,14,0,13.6,0
2004/12/3,8:15,,2,,2,12,0,73,0,16.7,0,13.9,0,13.4,0
2004/12/3,8:30,,2,,2,12.4,0,71.3,0,16.7,0,13.9,0,13.4,0
2004/12/3,8:45,,2,,2,13.1,0,70.2,0,16.7,0,13.9,0,13.3,0
2004/12/3,9:00,,2,,2,14.1,0,67,0,16.6,0,13.9,0,13.3,0
2004/12/3,9:15,,2,,2,16.5,0,58.7,0,16.6,0,13.9,0,13.3,0
2004/12/3,9:30,,2,,2,22,0,45.1,0,16.7,0,13.9,0,13.5,0
2004/12/3,9:45,,2,,2,24.4,0,38.8,0,16.6,0,13.7,0,13.6,0
2004/12/3,10:00,,2,,2,25.7,0,36.8,0,16.6,0,13.7,0,13.6,0
2004/12/3,10:15,,2,,2,26.6,0,35,0,16.6,0,13.8,0,13.8,0
2004/12/3,10:30,,2,,2,23.6,0,41.2,0,16.6,0,14.3,0,13.9,0
2004/12/3,10:45,,2,,2,22.8,0,43.5,0,16.5,0,14.6,0,13.9,0
2004/12/3,11:00,,2,,2,22.8,0,44.7,0,16.5,0,15,0,14,0
2004/12/3,11:15,,2,,2,23.1,0,44.4,0,16.5,0,15.3,0,14.3,0
2004/12/3,11:30,,2,,2,23.1,0,44.5,0,16.5,0,15.7,0,14.7,0
2004/12/3,11:45,,2,,2,23.1,0,44.9,0,16.5,0,16,0,14.6,0
2004/12/3,12:00,,2,,2,23.3,0,44.9,0,16.5,0,16.4,0,14.7,0
2004/12/3,12:15,,2,,2,23.4,0,44.9,0,16.5,0,16.7,0,14.9,0
2004/12/3,12:30,,2,,2,23.6,0,44.5,0,16.5,0,17,0,15.1,0
2004/12/3,12:45,,2,,2,23.6,0,44.7,0,16.4,0,17.3,0,15.4,0
2004/12/3,13:00,,2,,2,23.6,0,43,0,16.4,0,17.6,0,15.7,0
2004/12/3,13:15,,2,,2,23.8,0,42.3,0,16.4,0,18.1,0,15.9,0
2004/12/3,13:30,,2,,2,23.9,0,43.3,0,16.4,0,18.4,0,16.3,0
2004/12/3,13:45,,2,,2,24,0,43.7,0,16.4,0,18.7,0,16.5,0
2004/12/3,14:00,,2,,2,24.1,0,44,0,16.4,0,19,0,16.7,0
2004/12/3,14:15,,2,,2,23.9,0,44.4,0,16.4,0,19.1,0,16.9,0
2004/12/3,14:30,,2,,2,23.8,0,44.9,0,16.4,0,19.3,0,17.1,0
2004/12/3,14:45,,2,,2,23.7,0,45.8,0,16.4,0,19.4,0,17.5,0
2004/12/3,15:00,,2,,2,23.5,0,46.5,0,16.4,0,19.5,0,17.8,0
2004/12/3,15:15,,2,,2,23.2,0,47.6,0,16.4,0,19.6,0,17.9,0
2004/12/3,15:30,,2,,2,22.8,0,48.5,0,16.5,0,19.7,0,18,0
2004/12/3,15:45,,2,,2,22.5,0,48.6,0,16.5,0,19.8,0,18.1,0
2004/12/3,16:00,,2,,2,22.9,0,46.6,0,16.5,0,19.8,0,18.2,0
2004/12/3,16:15,,2,,2,21.9,0,49.8,0,16.9,0,19.8,0,18.3,0
2004/12/3,16:30,,2,,2,21.1,0,51.6,0,16.9,0,19.7,0,18.3,0
2004/12/3,16:45,,2,,2,20.6,0,53.5,0,16.9,0,19.4,0,18.4,0
2004/12/3,17:00,,2,,2,20.1,0,55,0,16.9,0,19,0,18.2,0
2004/12/3,17:15,,2,,2,19.7,0,56.4,0,17.1,0,19,0,18.1,0
2004/12/3,17:30,,2,,2,19.4,0,58.3,0,17.1,0,19,0,17.8,0
2004/12/3,17:45,,2,,2,19.1,0,60.5,0,17.1,0,18.9,0,17.6,0
2004/12/3,18:00,,2,,2,18.8,0,62.3,0,17.1,0,18.8,0,17.4,0
2004/12/3,18:15,,2,,2,18.6,0,63.9,0,17.2,0,18.8,0,17.2,0
2004/12/3,18:30,,2,,2,18.4,0,65.5,0,17.2,0,18.9,0,16.9,0
2004/12/3,18:45,,2,,2,18.2,0,66.3,0,17.2,0,18.9,0,16.7,0
2004/12/3,19:00,,2,,2,18,0,66.7,0,17.2,0,18.8,0,16.5,0
2004/12/3,19:15,,2,,2,18,0,67.1,0,17.3,0,18.8,0,16.4,0
2004/12/3,19:30,,2,,2,17.9,0,69.7,0,17.3,0,18.7,0,16.2,0
2004/12/3,19:45,,2,,2,17.7,0,68.2,0,17.3,0,18.6,0,16.2,0
2004/12/3,20:00,,2,,2,17.7,0,70.8,0,17.3,0,18.6,0,16.4,0
2004/12/3,20:15,,2,,2,17.6,0,68.2,0,17.4,0,18.6,0,16.2,0
2004/12/3,20:30,,2,,2,17.6,0,69.9,0,17.4,0,18.8,0,15.9,0
2004/12/3,20:45,,2,,2,17.6,0,70.1,0,17.4,0,18.8,0,16.1,0
2004/12/3,21:00,,2,,2,18.2,0,70.8,0,17.5,0,18.9,0,15.7,0
2004/12/3,21:15,,2,,2,18.7,0,69.5,0,17.5,0,18.9,0,15.9,0
2004/12/3,21:30,,2,,2,18.9,0,66.4,0,17.5,0,18.7,0,15.7,0
2004/12/3,21:45,,2,,2,19.1,0,65,0,17.5,0,19.2,0,15.8,0
2004/12/3,22:00,,2,,2,19.3,0,64.6,0,17.5,0,19.6,0,15.6,0
2004/12/3,22:15,,2,,2,19.4,0,63.6,0,17.6,0,19.7,0,15.3,0
2004/12/3,22:30,,2,,2,19.5,0,62.8,0,17.6,0,19.9,0,15,0
2004/12/3,22:45,,2,,2,19.5,0,61.9,0,17.6,0,20.5,0,14.8,0
2004/12/3,23:00,,2,,2,19.8,0,64,0,17.6,0,20.5,0,14.7,0
2004/12/3,23:15,,2,,2,19.7,0,65,0,17.6,0,20.4,0,14.6,0
2004/12/3,23:30,,2,,2,19.4,0,66.3,0,17.2,0,20.3,0,14.5,0
2004/12/3,23:45,,2,,2,19.1,0,67.2,0,17.2,0,20.4,0,14.6,0
2004/12/4,0:00,,2,,2,18.6,0,66.2,0,17.2,0,20.5,0,14.8,0
2004/12/4,0:15,,2,,2,18.1,0,65.3,0,17.2,0,20.1,0,14.8,0
2004/12/4,0:30,,2,,2,17.9,0,65.9,0,17.2,0,19.8,0,14.6,0
2004/12/4,0:45,,2,,2,17.8,0,73.4,0,17.1,0,19.6,0,14.5,0
2004/12/4,1:00,,2,,2,17.6,0,74.1,0,17.1,0,19.1,0,15.3,0
2004/12/4,1:15,,2,,2,17.3,0,73.8,0,17.1,0,18.9,0,16.1,0
2004/12/4,1:30,,2,,2,17.1,0,73.6,0,17.1,0,18.8,0,15.3,0
2004/12/4,1:45,,2,,2,16.9,0,73.2,0,17.1,0,18.7,0,15.1,0
2004/12/4,2:00,,2,,2,16.8,0,73.3,0,17.2,0,18.5,0,14.9,0
2004/12/4,2:15,,2,,2,16.7,0,73,0,17.2,0,18.3,0,15,0
2004/12/4,2:30,,2,,2,16.6,0,72.8,0,17.2,0,18.1,0,14.9,0
2004/12/4,2:45,,2,,2,16.5,0,72.6,0,17.2,0,18,0,15,0
2004/12/4,3:00,,2,,2,16.5,0,72.4,0,17.2,0,17.9,0,15.1,0
2004/12/4,3:15,,2,,2,16.4,0,72.1,0,17.2,0,17.8,0,15.2,0
2004/12/4,3:30,,2,,2,16.4,0,71.9,0,17.3,0,17.7,0,15.2,0
2004/12/4,3:45,,2,,2,16.4,0,71.5,0,17.3,0,17.6,0,15.2,0
2004/12/4,4:00,,2,,2,16.4,0,71.3,0,17.3,0,17.6,0,15.3,0
2004/12/4,4:15,,2,,2,16.3,0,71.5,0,17.3,0,17.5,0,15.4,0
2004/12/4,4:30,,2,,2,16.4,0,71.6,0,17.3,0,17.5,0,15.4,0
2004/12/4,4:45,,2,,2,16.4,0,71.7,0,17.3,0,17.4,0,15.2,0
2004/12/4,5:00,,2,,2,16.4,0,71.8,0,17.3,0,17.3,0,15.1,0
2004/12/4,5:15,,2,,2,16.4,0,71.9,0,17.3,0,17.3,0,15.2,0
2004/12/4,5:30,,2,,2,16.3,0,71.5,0,17.4,0,17.3,0,15.3,0
2004/12/4,5:45,,2,,2,16.3,0,71.7,0,17.4,0,17.3,0,15.2,0
2004/12/4,6:00,,2,,2,16.2,0,71.7,0,17.4,0,17.2,0,15.1,0
2004/12/4,6:15,,2,,2,16.2,0,71.5,0,17.4,0,17.2,0,15.2,0
2004/12/4,6:30,,2,,2,16.2,0,71.5,0,17.4,0,17.1,0,15.2,0
2004/12/4,6:45,,2,,2,16.1,0,71.5,0,17.4,0,17.1,0,15.2,0
2004/12/4,7:00,,2,,2,16.1,0,71.3,0,17.4,0,17,0,15.2,0
2004/12/4,7:15,,2,,2,16,0,71.4,0,17.4,0,17,0,15.3,0
2004/12/4,7:30,,2,,2,16,0,71.6,0,17.4,0,17,0,15.4,0
2004/12/4,7:45,,2,,2,16,0,71.3,0,17.5,0,16.9,0,15.3,0
2004/12/4,8:00,,2,,2,16,0,71.2,0,17.5,0,16.8,0,15.3,0
2004/12/4,8:15,,2,,2,16.1,0,70.9,0,17.5,0,16.8,0,15.3,0
2004/12/4,8:30,,2,,2,16.2,0,70.3,0,17.5,0,16.8,0,15.3,0
2004/12/4,8:45,,2,,2,16.8,0,71,0,17.5,0,16.7,0,15.4,0
2004/12/4,9:00,,2,,2,17.8,0,69,0,17.5,0,16.8,0,15.4,0
2004/12/4,9:15,,2,,2,18.3,0,67.5,0,17.5,0,16.8,0,15.5,0
2004/12/4,9:30,,2,,2,18.8,0,66.1,0,17.3,0,17.1,0,15.3,0
2004/12/4,9:45,,2,,2,19.1,0,65,0,17.4,0,18.6,0,15.2,0
2004/12/4,10:00,,2,,2,19.3,0,65,0,17.4,0,19,0,15.3,0
2004/12/4,10:15,,2,,2,19.8,0,65,0,17.4,0,19.2,0,15.4,0
2004/12/4,10:30,,2,,2,19.9,0,64,0,17.4,0,19.4,0,15.5,0
2004/12/4,10:45,,2,,2,19.8,0,64.2,0,17.4,0,19.5,0,15.6,0
2004/12/4,11:00,,2,,2,19.5,0,64.8,0,17.4,0,19.6,0,15.5,0
2004/12/4,11:15,,2,,2,19.1,0,63.4,0,17.3,0,19.7,0,15.5,0
2004/12/4,11:30,,2,,2,18.8,0,65.9,0,17.3,0,19.6,0,15.7,0
2004/12/4,11:45,,2,,2,18.6,0,68.1,0,17.3,0,19.4,0,15.9,0
2004/12/4,12:00,,2,,2,18.4,0,71.1,0,17.3,0,18.9,0,16,0
2004/12/4,12:15,,2,,2,18.5,0,71.2,0,17.3,0,18.6,0,16.1,0
2004/12/4,12:30,,2,,2,18.5,0,70.8,0,17.3,0,18.4,0,16,0
2004/12/4,12:45,,2,,2,18.4,0,70.6,0,17.3,0,18.3,0,15.9,0
2004/12/4,13:00,,2,,2,18.3,0,70.4,0,17.1,0,18.2,0,15.6,0
2004/12/4,13:15,,2,,2,18.1,0,70.2,0,17.2,0,18.2,0,15.7,0
2004/12/4,13:30,,2,,2,18,0,70,0,17.2,0,18.1,0,15.9,0
2004/12/4,13:45,,2,,2,18,0,70,0,17.2,0,18.1,0,16,0
2004/12/4,14:00,,2,,2,17.9,0,70.1,0,17.2,0,18,0,16,0
2004/12/4,14:15,,2,,2,18.3,0,73.1,0,17.2,0,18,0,16,0
2004/12/4,14:30,,2,,2,18.7,0,74.5,0,17.2,0,18,0,15.9,0
2004/12/4,14:45,,2,,2,19,0,74.1,0,17.2,0,17.9,0,15.8,0
2004/12/4,15:00,,2,,2,19.2,0,74,0,17.2,0,18.3,0,15.8,0
2004/12/4,15:15,,2,,2,19.2,0,73.2,0,17.2,0,19.1,0,15.7,0
2004/12/4,15:30,,2,,2,19.2,0,73.1,0,17.3,0,19.8,0,15.7,0
2004/12/4,15:45,,2,,2,19.2,0,72.9,0,17.3,0,19.9,0,15.7,0
2004/12/4,16:00,,2,,2,19.2,0,73.3,0,17.3,0,19.7,0,15.6,0
2004/12/4,16:15,,2,,2,19.3,0,73.3,0,16.9,0,19.7,0,15.5,0
2004/12/4,16:30,,2,,2,19.5,0,73.2,0,16.8,0,19.7,0,15.5,0
2004/12/4,16:45,,2,,2,19.5,0,72.6,0,16.8,0,19.6,0,15.5,0
2004/12/4,17:00,,2,,2,19.6,0,72.6,0,16.9,0,19.6,0,15.5,0
2004/12/4,17:15,,2,,2,19.7,0,71.4,0,16.8,0,19.9,0,15.4,0
2004/12/4,17:30,,2,,2,19.1,0,72.2,0,16.8,0,19.9,0,15.4,0
2004/12/4,17:45,,2,,2,18.8,0,73.1,0,16.8,0,19.9,0,15.4,0
2004/12/4,18:00,,2,,2,18.6,0,73.7,0,16.7,0,19.9,0,15.4,0
2004/12/4,18:15,,2,,2,18.4,0,74.2,0,16.9,0,19.6,0,15.4,0
2004/12/4,18:30,,2,,2,18.3,0,74.4,0,16.9,0,19.3,0,15.4,0
2004/12/4,18:45,,2,,2,18.2,0,75.7,0,16.9,0,19.2,0,15.4,0
2004/12/4,19:00,,2,,2,18.2,0,77.9,0,16.9,0,19,0,15.5,0
2004/12/4,19:15,,2,,2,18.2,0,78.3,0,16.9,0,18.9,0,15.5,0
2004/12/4,19:30,,2,,2,18.4,0,78.9,0,17,0,18.8,0,15.6,0
2004/12/4,19:45,,2,,2,18.7,0,77.3,0,17,0,18.6,0,15.6,0
2004/12/4,20:00,,2,,2,19.1,0,77.6,0,16.9,0,18.7,0,15.8,0
2004/12/4,20:15,,2,,2,19.3,0,77.1,0,16.9,0,19.6,0,16.1,0
2004/12/4,20:30,,2,,2,19.4,0,73.7,0,16.9,0,20.9,0,16.2,0
2004/12/4,20:45,,2,,2,19.2,0,72.4,0,16.9,0,20.6,0,16.4,0
2004/12/4,21:00,,2,,2,19.2,0,74.2,0,16.9,0,20.6,0,16.4,0
2004/12/4,21:15,,2,,2,19.1,0,73,0,16.9,0,20.3,0,16.5,0
2004/12/4,21:30,,2,,2,19.2,0,76.1,0,16.9,0,20,0,16.6,0
2004/12/4,21:45,,2,,2,19.5,0,75.7,0,17,0,19.9,0,16.6,0
2004/12/4,22:00,,2,,2,19.9,0,75.2,0,16.8,0,19.7,0,16.7,0
2004/12/4,22:15,,2,,2,20.2,0,74.6,0,16.9,0,19.7,0,16.7,0
2004/12/4,22:30,,2,,2,20.4,0,74.1,0,16.9,0,20.3,0,16.8,0
2004/12/4,22:45,,2,,2,20.7,0,73.3,0,16.9,0,20.7,0,16.9,0
2004/12/4,23:00,,2,,2,20.9,0,72.8,0,16.9,0,21.1,0,17,0
2004/12/4,23:15,,2,,2,21,0,70.6,0,16.9,0,21.4,0,17.1,0
2004/12/4,23:30,,2,,2,20.8,0,70.4,0,17,0,21.6,0,17.2,0
2004/12/4,23:45,,2,,2,20.6,0,70.5,0,17,0,21.7,0,17.2,0
2004/12/5,0:00,,2,,2,20.3,0,68.6,0,17,0,21.8,0,17.9,0
2004/12/5,0:15,,2,,2,20,0,68.2,0,16.8,0,21.6,0,18,0
2004/12/5,0:30,,2,,2,19.8,0,69.3,0,16.8,0,21.3,0,18.1,0
2004/12/5,0:45,,2,,2,19.6,0,69.4,0,17.5,0,20.9,0,18.1,0
2004/12/5,1:00,,2,,2,19.3,0,72.1,0,17.6,0,20.6,0,18.1,0
2004/12/5,1:15,,2,,2,19.1,0,73.3,0,17.1,0,20.3,0,18.3,0
2004/12/5,1:30,,2,,2,19,0,74.5,0,17.2,0,20.1,0,18.5,0
2004/12/5,1:45,,2,,2,18.9,0,74.2,0,17.2,0,19.9,0,17.6,0
2004/12/5,2:00,,2,,2,18.7,0,74.4,0,17.2,0,19.8,0,17.3,0
2004/12/5,2:15,,2,,2,18.6,0,74.4,0,17.2,0,19.7,0,17.5,0
2004/12/5,2:30,,2,,2,18.5,0,74.4,0,17.2,0,19.6,0,17.6,0
2004/12/5,2:45,,2,,2,18.3,0,74.6,0,17.2,0,19.5,0,17.6,0
2004/12/5,3:00,,2,,2,18.1,0,74.8,0,17.2,0,19.4,0,17.6,0
2004/12/5,3:15,,2,,2,17.9,0,75.1,0,17.3,0,19.2,0,17.5,0
2004/12/5,3:30,,2,,2,17.8,0,75.2,0,17.3,0,19.1,0,17.4,0
2004/12/5,3:45,,2,,2,17.6,0,75.3,0,17.3,0,19,0,17.3,0
2004/12/5,4:00,,2,,2,17.3,0,75.4,0,17.3,0,18.9,0,17.1,0
2004/12/5,4:15,,2,,2,17.2,0,75.8,0,17.3,0,18.7,0,17.1,0
2004/12/5,4:30,,2,,2,17,0,76.2,0,17.4,0,18.6,0,17,0
2004/12/5,4:45,,2,,2,16.9,0,76.6,0,17.4,0,18.4,0,16.8,0
2004/12/5,5:00,,2,,2,16.7,0,77,0,17.4,0,18.3,0,16.7,0
2004/12/5,5:15,,2,,2,16.6,0,77.2,0,17.4,0,18.2,0,16.5,0
2004/12/5,5:30,,2,,2,16.5,0,77.3,0,17.4,0,18.1,0,16.4,0
2004/12/5,5:45,,2,,2,16.4,0,77.5,0,17.4,0,18,0,16.3,0
2004/12/5,6:00,,2,,2,16.3,0,77.5,0,17.5,0,17.9,0,16.1,0
2004/12/5,6:15,,2,,2,16.2,0,77.1,0,17.5,0,17.9,0,16.1,0
2004/12/5,6:30,,2,,2,16.1,0,77.2,0,17.5,0,17.8,0,16,0
2004/12/5,6:45,,2,,2,15.9,0,77.3,0,17.5,0,17.7,0,16.1,0
2004/12/5,7:00,,2,,2,15.7,0,77.2,0,17.5,0,17.6,0,16,0
2004/12/5,7:15,,2,,2,15.6,0,77.7,0,17.5,0,17.5,0,15.9,0
2004/12/5,7:30,,2,,2,15.4,0,82.6,0,17.5,0,17.4,0,15.8,0
2004/12/5,7:45,,2,,2,15.3,0,81.1,0,17.5,0,17.2,0,15.7,0
2004/12/5,8:00,,2,,2,15.4,0,82,0,17.6,0,17.1,0,15.6,0
2004/12/5,8:15,,2,,2,16.1,0,80.4,0,17.6,0,17,0,15.4,0
2004/12/5,8:30,,2,,2,16.6,0,74,0,17.6,0,17,0,15.1,0
2004/12/5,8:45,,2,,2,17.2,0,72.4,0,17,0,16.9,0,15.2,0
2004/12/5,9:00,,2,,2,17.6,0,70.1,0,17,0,17.7,0,15.1,0